Weather History for KPGA - March, 2014

Change the Weather History Date:

Tuesday, March 4, 2014

  Actual Average Record
Temperature  
Mean Temperature 54 °F -  
Max Temperature 64 °F 54 °F 72 °F (1972)
Min Temperature 44 °F 34 °F 19 °F (1965)
Degree Days  
Heating Degree Days 11    
Growing Degree Days 4 (Base 50)    
Moisture  
Dew Point 31 °F    
Average Humidity 45    
Maximum Humidity 63    
Minimum Humidity 23    
Precipitation  
Precipitation 0.00 in - - ()
Sea Level Pressure  
Sea Level Pressure 29.91 in    
Wind  
Wind Speed 4 mph (WNW)    
Max Wind Speed 15 mph    
Max Gust Speed 25 mph    
Visibility 10 miles    
Events      
Averages and records for this station are not official NWS values.
T = Trace of Precipitation, MM = Missing Value Source: NWS Daily Summary

Daily Weather History Graph

Daily Weather History Graph

Search for Another Location

Airport or City:

Trip Planner

Search our weather history database for the weather conditions in past years. The results will help you decide how hot, cold, wet, or windy it might be!

Date:

Astronomy

Mar. 04, 2014 Rise Set
Actual Time 6:52 AM MST 6:23 PM MST
Civil Twilight 6:26 AM MST 6:49 PM MST
Nautical Twilight 5:56 AM MST 7:19 PM MST
Astronomical Twilight 5:26 AM MST 7:49 PM MST
Moon 8:47 AM MST (3/4) 10:27 PM MST (3/4)
Length of Visible Light 12h 22m
Length of Day
11h 30m
Waxing Crescent, 15% of the Moon is Illuminated
Mar 4
Waxing Crescent
Mar 8
First Quarter
Mar 16
Full
Mar 23
Last Quarter
Mar 30
New

Hourly Weather History & Observations

Time (MST) Temp. Windchill Dew Point Humidity Pressure Visibility Wind Dir Wind Speed Gust Speed Precip Events Conditions
12:53 AM 46.0 °F - 32.0 °F 58% 29.96 in 10.0 mi Calm Calm - N/A   Clear
1:53 AM 46.0 °F 44.8 °F 32.0 °F 58% 29.95 in 10.0 mi SW 3.5 mph - N/A   Clear
2:53 AM 46.0 °F - 32.0 °F 58% 29.94 in 10.0 mi Calm Calm - N/A   Clear
3:53 AM 45.0 °F - 33.1 °F 63% 29.92 in 10.0 mi Calm Calm - N/A   Clear
4:53 AM 45.0 °F - 33.1 °F 63% 29.91 in 10.0 mi Calm Calm - N/A   Clear
5:53 AM 45.0 °F 42.6 °F 33.1 °F 63% 29.91 in 10.0 mi WSW 4.6 mph - N/A   Clear
6:53 AM 45.0 °F - 33.1 °F 63% 29.90 in 10.0 mi Calm Calm - N/A   Clear
7:53 AM 46.9 °F - 33.1 °F 59% 29.90 in 10.0 mi Calm Calm - N/A   Partly Cloudy
8:53 AM 48.0 °F - 33.1 °F 56% 29.90 in 10.0 mi North 4.6 mph - N/A   Scattered Clouds
9:53 AM 48.9 °F - 33.1 °F 54% 29.91 in 10.0 mi NW 4.6 mph - N/A   Overcast
10:53 AM 51.1 °F - 33.1 °F 50% 29.89 in 10.0 mi WNW 4.6 mph - N/A   Overcast
11:53 AM 53.1 °F - 34.0 °F 48% 29.89 in 10.0 mi Calm Calm - N/A   Mostly Cloudy
12:53 PM 57.0 °F - 34.0 °F 42% 29.87 in 10.0 mi Calm Calm - N/A   Mostly Cloudy
1:53 PM 57.9 °F - 32.0 °F 37% 29.84 in 10.0 mi SSW 5.8 mph - N/A   Overcast
2:53 PM 62.1 °F - 30.9 °F 31% 29.81 in 10.0 mi NW 9.2 mph - N/A   Partly Cloudy
3:53 PM 63.0 °F - 28.9 °F 28% 29.82 in 10.0 mi West 10.4 mph 16.1 mph N/A   Overcast
4:53 PM 60.1 °F - 32.0 °F 35% 29.84 in 10.0 mi WNW 11.5 mph 24.2 mph N/A   Overcast
5:53 PM 59.0 °F - 32.0 °F 36% 29.86 in 10.0 mi West 5.8 mph - N/A   Mostly Cloudy
6:53 PM 57.9 °F - 26.1 °F 30% 29.88 in 10.0 mi NW 13.8 mph 25.3 mph N/A   Clear
7:53 PM 55.9 °F - 27.0 °F 33% 29.92 in 10.0 mi WNW 11.5 mph 23.0 mph N/A   Clear
8:53 PM 54.0 °F - 26.1 °F 34% 29.96 in 10.0 mi NW 15.0 mph 24.2 mph N/A   Clear
9:53 PM 52.0 °F - 27.0 °F 38% 29.99 in 10.0 mi WNW 10.4 mph - N/A   Clear
10:53 PM 51.1 °F - 27.0 °F 39% 30.01 in 10.0 mi WNW 8.1 mph - N/A   Clear
11:53 PM 50.0 °F - 26.1 °F 39% 30.01 in 10.0 mi NW 5.8 mph - N/A   Clear